SM4TUV Weather Reports


Display with metric or nautical units.
time (UTC)temp
F
wind
direction
speed
MPH
gust
MPH
rain 1hr
in
rain 24hr
in
rain mn
in
humidity
%
barometer
mb
20260902125731 68 199 12.0 18.0 0.00 0.11 0.11 48 971.4
20260902124831 69 213 10.0 17.0 0.00 0.11 0.11 47 971.4
20260902123932 69 220 11.0 17.0 0.00 0.11 0.11 47 971.4
20260902123033 68 242 11.0 17.0 0.00 0.11 0.11 49 971.6
20260902122132 68 250 14.0 17.0 0.00 0.11 0.11 47 971.7
20260902121232 68 214 8.0 17.0 0.00 0.11 0.11 48 971.4
20260902115432 67 226 10.0 15.0 0.00 0.11 0.11 56 971.9
20260902114532 66 221 6.0 10.0 0.00 0.11 0.11 63 972.0
20260902113632 65 214 7.0 11.0 0.00 0.11 0.11 63 972.1
20260902111832 65 213 7.0 10.0 0.00 0.11 0.11 65 972.3
20260902110931 65 191 10.0 11.0 0.00 0.11 0.11 65 972.4
20260902110031 64 205 10.0 11.0 0.00 0.11 0.11 66 972.3
20260902105132 66 224 9.0 11.0 0.11 0.11 0.11 65 972.4
20260902104231 64 217 7.0 11.0 0.11 0.11 0.11 70 972.6
20260902103332 62 225 4.0 7.0 0.11 0.12 0.11 77 972.6
20260902101532 59 197 3.0 4.0 0.11 0.12 0.11 81 972.8
20260902095732 60 216 3.0 4.0 0.01 0.02 0.01 79 972.7
20260902093933 61 215 3.0 4.0 0.00 0.01 0.00 76 972.6
20260902093032 61 220 3.0 5.0 0.00 0.01 0.00 76 972.8
20260902091232 61 216 3.0 5.0 0.00 0.02 0.00 77 972.8
20260902090331 60 205 4.0 10.0 0.00 0.02 0.00 79 972.8
20260902085432 60 211 5.0 10.0 0.00 0.02 0.00 78 973.0
20260902084532 60 242 4.0 5.0 0.00 0.04 0.00 81 973.0
20260902083631 60 275 3.0 5.0 0.00 0.04 0.00 82 973.1
20260902081831 59 242 4.0 5.0 0.00 0.04 0.00 83 973.0
20260902080932 59 119 4.0 4.0 0.00 0.04 0.00 84 973.1
20260902080031 59 225 2.0 4.0 0.00 0.04 0.00 85 973.1
20260902075132 58 243 3.0 4.0 0.00 0.05 0.00 88 973.2
20260902073331 56 199 3.0 3.0 0.00 0.05 0.00 89 973.1
20260902072433 56 195 2.0 3.0 0.00 0.06 0.00 91 973.1
20260902071531 56 277 1.0 2.0 0.00 0.06 0.00 92 973.3
20260902070632 55 0 0.0 0.0 0.00 0.06 0.00 92 973.2
20260902065733 55 184 0.0 1.0 0.00 0.06 0.00 92 973.2
20260902064832 54 35 1.0 3.0 0.00 0.06 0.00 92 973.2
20260902063933 54 268 1.0 3.0 0.00 0.06 0.00 92 973.2
20260902063032 53 265 2.0 3.0 0.00 0.06 0.00 92 973.3
20260902062132 53 287 3.0 5.0 0.00 0.06 0.00 92 973.4
20260902061232 53 203 2.0 4.0 0.00 0.06 0.00 92 973.4
20260902060332 53 202 2.0 4.0 0.00 0.06 0.00 92 973.4
20260902054532 53 225 3.0 5.0 0.00 0.06 0.00 92 973.4
20260902053632 53 266 2.0 4.0 0.00 0.06 0.00 92 973.3
20260902052732 53 242 2.0 4.0 0.00 0.06 0.00 92 973.4
20260902051832 53 230 3.0 4.0 0.00 0.06 0.00 92 973.4
20260902050933 53 185 3.0 4.0 0.00 0.06 0.00 92 973.3
20260902050032 52 223 2.0 3.0 0.00 0.06 0.00 92 973.5
20260902043332 51 233 3.0 4.0 0.00 0.06 0.00 92 973.5
20260902042433 51 243 3.0 4.0 0.00 0.06 0.00 92 973.4
20260902041532 52 239 5.0 8.0 0.00 0.06 0.00 92 973.4
20260902040632 51 227 5.0 6.0 0.00 0.06 0.00 92 973.3
20260902035732 51 239 2.0 6.0 0.00 0.06 0.00 92 973.6
20260902033933 51 190 2.0 2.0 0.00 0.06 0.00 92 973.5
20260902032132 51 176 3.0 4.0 0.00 0.06 0.00 91 973.4
20260902030332 51 146 3.0 4.0 0.00 0.06 0.00 91 973.5
20260902024532 50 96 2.0 3.0 0.00 0.06 0.00 90 973.4
20260902023632 50 87 2.0 3.0 0.00 0.06 0.00 90 973.6
20260902022733 51 136 2.0 3.0 0.00 0.06 0.00 91 973.5
20260902021832 50 132 2.0 3.0 0.00 0.06 0.00 90 973.6
20260902020932 49 98 2.0 3.0 0.00 0.06 0.00 89 973.5
20260902020033 49 96 1.0 2.0 0.00 0.06 0.00 89 973.6
20260902014232 51 148 3.0 4.0 0.00 0.06 0.00 89 973.7
20260902013332 51 178 3.0 4.0 0.00 0.06 0.00 90 973.8
20260902012433 51 172 3.0 3.0 0.00 0.06 0.00 90 973.8
20260902011532 50 152 2.0 4.0 0.00 0.06 0.00 89 973.8
20260902010632 51 181 4.0 4.0 0.00 0.06 0.00 89 973.9
20260902005732 51 160 3.0 4.0 0.00 0.06 0.00 89 973.9
20260902004832 50 98 1.0 2.0 0.00 0.06 0.00 85 974.0
20260902003032 52 96 0.0 1.0 0.00 0.06 0.00 85 974.0
20260902000332 53 170 2.0 3.0 0.00 0.06 0.00 85 974.1
20260901235432 53 171 3.0 4.0 0.00 0.06 0.00 85 974.1
20260901234532 53 182 3.0 4.0 0.00 0.06 0.00 85 974.2
20260901232733 53 177 2.0 3.0 0.00 0.06 0.00 84 974.2
20260901231832 53 177 3.0 4.0 0.00 0.06 0.00 84 974.3
20260901230932 53 181 3.0 4.0 0.00 0.06 0.00 84 974.3
20260901225132 53 159 2.0 3.0 0.00 0.06 0.00 82 974.3
20260901224232 53 173 2.0 3.0 0.00 0.06 0.00 83 974.4
20260901223332 53 135 1.0 2.0 0.00 0.06 0.00 80 974.4
20260901222432 54 135 2.0 2.0 0.00 0.06 0.00 80 974.5
20260901221532 54 148 2.0 2.0 0.00 0.06 0.00 80 974.5
20260901220632 54 181 2.0 3.0 0.00 0.06 0.00 79 974.5
20260901215732 55 171 3.0 3.0 0.00 0.06 0.06 79 974.7
20260901214832 55 177 4.0 4.0 0.00 0.06 0.06 79 974.5
20260901213933 55 176 4.0 4.0 0.00 0.06 0.06 78 974.5
20260901213032 55 179 4.0 4.0 0.00 0.06 0.06 77 974.5
20260901212132 56 176 4.0 4.0 0.00 0.06 0.06 77 974.5
20260901205433 57 168 3.0 3.0 0.00 0.06 0.06 74 974.7
20260901204532 57 181 3.0 3.0 0.00 0.06 0.06 73 974.8
20260901203632 57 175 2.0 3.0 0.00 0.06 0.06 73 974.7
20260901202732 57 171 2.0 3.0 0.00 0.06 0.06 72 974.8
20260901201832 58 172 2.0 3.0 0.00 0.06 0.06 71 974.8
20260901195132 59 181 3.0 3.0 0.00 0.06 0.06 69 975.0
20260901193332 59 177 3.0 4.0 0.00 0.06 0.06 69 974.8
20260901191532 60 185 3.0 4.0 0.00 0.06 0.06 68 974.8
20260901190632 59 206 3.0 3.0 0.00 0.06 0.06 70 974.8
20260901185733 59 203 2.0 3.0 0.00 0.06 0.06 69 974.8
20260901184832 60 197 2.0 3.0 0.00 0.06 0.06 68 974.9
20260901183932 60 177 3.0 4.0 0.00 0.06 0.06 67 974.9
20260901183032 61 175 4.0 5.0 0.00 0.06 0.06 66 974.8
20260901182132 61 170 4.0 5.0 0.00 0.06 0.06 66 974.9
20260901181232 61 184 4.0 4.0 0.00 0.06 0.06 66 974.9
20260901175433 62 176 4.0 4.0 0.00 0.06 0.06 65 974.7
20260901174532 63 178 3.0 4.0 0.00 0.06 0.06 64 974.8
20260901172732 64 179 3.0 4.0 0.00 0.06 0.06 62 974.8
20260901171832 65 185 3.0 4.0 0.00 0.06 0.06 62 974.6
20260901170932 65 140 3.0 4.0 0.00 0.06 0.06 61 974.8
20260901170032 67 174 2.0 3.0 0.00 0.06 0.06 59 974.8
20260901165132 68 182 2.0 3.0 0.00 0.06 0.06 55 974.9
20260901164232 70 222 1.0 2.0 0.00 0.06 0.06 51 975.1
20260901163332 70 267 1.0 2.0 0.00 0.06 0.06 51 975.1
20260901162432 71 256 1.0 2.0 0.00 0.06 0.06 51 975.1
20260901155732 71 267 2.0 5.0 0.00 0.06 0.06 48 975.0
20260901154832 73 258 2.0 4.0 0.00 0.06 0.06 48 975.0
20260901153932 72 245 3.0 4.0 0.00 0.06 0.06 49 975.1
20260901153032 69 280 2.0 3.0 0.00 0.06 0.06 53 975.1
20260901145432 72 216 5.0 8.0 0.00 0.06 0.06 48 975.4
20260901143632 72 238 5.0 9.0 0.00 0.06 0.06 50 975.4
20260901142732 72 247 4.0 6.0 0.00 0.06 0.06 49 975.5
20260901141832 72 242 4.0 6.0 0.00 0.06 0.06 48 975.4
20260901140032 72 233 5.0 8.0 0.00 0.06 0.06 47 975.7
20260901135132 72 262 5.0 7.0 0.00 0.06 0.06 47 975.7
20260901134232 70 279 6.0 9.0 0.00 0.06 0.06 49 975.6
20260901133332 71 231 5.0 7.0 0.00 0.06 0.06 48 975.8
20260901132433 71 283 5.0 8.0 0.00 0.06 0.06 48 975.9
20260901131532 72 233 4.0 6.0 0.00 0.06 0.06 48 975.9
20260901130632 70 220 5.0 7.0 0.00 0.06 0.06 49 976.0